Back to catalog

STARLINK-30256

AliveCommunicationsVLEO
NORAD 57522·PAYLOAD·🇺🇸 United States

Launched Aug 8, 2023 from Vandenberg Space Force Base

Loading…

Next Passes (next 24 hours)

TLE

FreshSource: CelesTrak SupGP

Epoch: Sep 14, 2026, 20:56 UTC

1 57522C 23115B   26257.87270833 -.00005956  00000+0 -21564-3 0  2577
2 57522  43.0033  13.5192 0001632 266.4626 342.2534 15.27595006    15

Track STARLINK-30256 in real time with AllMySat

Download on the App Store